Flag for Germany Weather past 2 weeks in Jena, Thuringia, Germany

57 °F

Partly cloudy.

Feels Like: 56 °F
Forecast: 53 / 61 °F
Wind: 6 mph from Southwest

Location: Erfurt-Bindersleben

Current Time: Oct 7, 2015 at 7:06:45 AM

Latest Report: Oct 7, 2015 at 6:20 AM

Visibility: N/A

Pressure: 29.80 "Hg

Humidity: 94%

Dew point: 55 °F

Location of JenaLocation

Historic Weather in Jena — Graph


Jena temperature yesterday

Maximum temperature yesterday: 66 °F (at 3:50 PM)
Minimum temperature yesterday: 52 °F (at 6:50 AM)
Average temperature yesterday: 59 °F

Past Weeks' High & Low Weather Summary

High70 °F (Oct 3, 3:50 PM)100% (Sep 28, 6:20 AM)30.63 "Hg (Sep 28, 6:20 AM)
Low34 °F (Oct 2, 5:20 AM)41% (Oct 1, 2:20 PM)29.62 "Hg (Sep 22, 4:50 PM)
Average53 °F74%30.18 "Hg
* Reported Sep 22 5:20 AM — Oct 7 5:20 AM, Jena, Weather by CustomWeather, © 2015

Note: Actual official high and low records may vary slightly from our data, if they occured in-between our weather recording intervals... More about our weather records


Jena weather history for previous 24 hours

Time TempWeatherWind HumidityBarometerVisibility
5:20 AM
Wed, Oct 7
57 °FPassing clouds.6 mph94%29.80 "HgN/A
4:50 AM57 °FPassing clouds.6 mph94%29.77 "HgN/A
4:20 AM57 °FPassing clouds.6 mph94%29.77 "HgN/A
3:50 AM59 °FPassing clouds.6 mph88%29.77 "HgN/A
3:20 AM57 °FLight rain. Mostly cloudy.7 mph94%29.77 "HgN/A
2:50 AM57 °FLight rain. Mostly cloudy.7 mph100%29.77 "HgN/A
2:20 AM57 °FLight rain. Mostly cloudy.6 mph100%29.77 "HgN/A
1:50 AM57 °FLight rain. Mostly cloudy.6 mph100%29.77 "HgN/A
1:20 AM57 °FLight rain. Mostly cloudy.7 mph100%29.77 "HgN/A
12:50 AM57 °FLight rain. Mostly cloudy.7 mph94%29.77 "HgN/A
12:20 AM59 °FLight rain. Mostly cloudy.8 mph88%29.77 "HgN/A
11:20 PM
Tue, Oct 6
59 °FLight rain. Mostly cloudy.8 mph88%29.77 "HgN/A
10:50 PM59 °FLight rain. Overcast.7 mph88%29.77 "HgN/A
10:20 PM59 °FLight rain. Mostly cloudy.6 mph88%29.74 "HgN/A
9:50 PM59 °FLight rain. Mostly cloudy.7 mph88%29.74 "HgN/A
9:20 PM61 °FLight rain. Mostly cloudy.7 mph83%29.74 "HgN/A
8:50 PM61 °FLight rain. Mostly cloudy.7 mph83%29.74 "HgN/A
8:20 PM61 °FLight rain. Passing clouds.6 mph83%29.74 "HgN/A
7:50 PM61 °FPassing clouds.5 mph83%29.74 "HgN/A
7:20 PM63 °FBroken clouds.3 mph77%29.74 "HgN/A
6:50 PM63 °FBroken clouds.6 mph77%29.74 "HgN/A
6:20 PM64 °FPartly sunny.7 mph73%29.74 "HgN/A
5:50 PM64 °FBroken clouds.6 mph73%29.74 "HgN/A
5:20 PM64 °FPartly sunny.7 mph73%29.71 "HgN/A
4:50 PM64 °FBroken clouds.7 mph73%29.71 "HgN/A
4:20 PM64 °FBroken clouds.9 mph73%29.71 "HgN/A
3:50 PM66 °FPartly sunny.9 mph68%29.74 "HgN/A
3:20 PM64 °FPartly sunny.9 mph73%29.74 "HgN/A
2:50 PM64 °FPartly sunny.8 mph73%29.74 "HgN/A
2:20 PM64 °FPartly sunny.9 mph73%29.74 "HgN/A
1:50 PM64 °FPartly sunny.12 mph73%29.74 "HgN/A
1:20 PM64 °FPartly sunny.12 mph73%29.74 "HgN/A
12:50 PM63 °FPartly sunny.12 mph77%29.74 "HgN/A
12:20 PM63 °FPartly sunny.9 mph77%29.74 "HgN/A
11:50 AM63 °FPartly sunny.10 mph77%29.74 "HgN/A
11:20 AM63 °FPartly sunny.10 mph77%29.74 "HgN/A
10:50 AM61 °FPartly sunny.9 mph77%29.74 "HgN/A
10:20 AM61 °FScattered clouds.9 mph77%29.74 "HgN/A
9:50 AM57 °FScattered clouds.8 mph82%29.74 "HgN/A
9:20 AM55 °FPartly sunny.9 mph88%29.74 "HgN/A
8:50 AM55 °FBroken clouds.6 mph88%29.74 "HgN/A
8:20 AM52 °FPartly cloudy.2 mph94%29.74 "HgN/A
7:50 AM52 °FPartly cloudy.5 mph94%29.74 "HgN/A
7:20 AM52 °FLight rain. Fog.5 mph94%29.74 "Hg2 mi
Weather by CustomWeather, © 2015

See weather overviewHow to use our weather pages